Temperature
16 16 16 15 16 15 15 15 15 15 15 15 15 15 15 15 15 14 15 15 15 15 15 14 14 14 14 14 14 14 14 14 14 14 14 14 14 14 14 14 14 14 14
16 15 15 15 15 15 15 15 15 15 15 15 15 15 14 14 14 14 14 14 14 14 14 14 14 14 14 14 14 14 14 14 14 14 14 14 14 14 14 14 14 14 14
16 16 15 15 15 15 15 15 15 15 15 15 14 14 14 14 14 14 14 14 14 14 14 14 14 14 14 14 14 14 13 14 13 13 13 13 14 14 14 14 14 14 14
16 15 15 15 15 15 15 15 15 15 14 14 14 14 14 14 14 14 14 14 14 14 14 14 14 14 14 13 13 13 13 13 13 13 13 13 13 13 13 13 13 13 13
16 15 15 15 15 15 15 15 15 14 14 14 14 14 14 14 14 14 14 14 14 13 13 14 14 14 13 13 13 13 13 13 13 13 13 13 13 13 13 13 13 13 13
16 15 15 15 15 15 15 15 15 14 14 14 14 14 14 14 14 14 13 13 13 13 13 13 13 13 13 13 13 13 13 12 12 12 12 13 12 12 13 13 13 13 13
16 15 15 15 15 15 15 14 14 14 14 14 14 14 14 14 14 13 13 13 13 13 13 13 13 13 13 13 13 13 13 12 12 12 12 12 12 12 12 12 12 12 12
16 15 15 15 15 15 15 14 14 14 14 14 14 14 15 14 13 13 13 13 13 13 13 13 12 12 12 12 12 13 13 12 12 12 12 12 12 12 12 12 12 12 12
16 15 15 15 15 15 14 14 14 14 14 14 14 14 15 15 14 13 13 13 12 12 12 12 12 12 12 12 12 12 12 12 12 12 12 12 12 12 12 12 12 12 12
16 15 15 15 15 15 14 14 14 14 14 14 13 13 14 14 14 14 13 13 12 12 12 12 12 12 12 12 12 12 12 12 12 12 11 12 11 12 11 12 12 12 12
15 15 15 15 15 15 14 14 14 14 14 13 13 13 13 13 13 14 14 13 12 12 12 12 12 12 11 11 11 12 12 12 12 12 11 11 11 11 11 11 11 11 11
15 15 15 15 15 14 14 14 14 14 13 13 13 13 13 13 13 13 13 13 13 12 12 12 11 11 11 11 11 11 12 12 12 11 11 11 11 11 11 11 11 11 11
15 15 15 14 14 14 14 14 13 13 13 13 13 13 13 13 13 13 13 13 12 12 11 11 11 11 11 11 11 11 11 11 11 11 11 11 11 11 11 11 11 11 11
15 15 14 14 14 14 14 13 13 13 13 13 13 13 13 12 12 12 12 12 12 12 12 12 11 11 11 11 11 11 11 11 11 11 11 11 11 11 11 10 10 10 10
14 14 14 14 14 14 13 13 13 13 13 13 13 13 12 12 12 12 12 12 12 12 12 12 11 11 11 11 11 10 10 11 11 11 11 11 11 11 11 10 10 10 10
14 14 14 14 14 14 13 13 13 13 13 13 13 12 12 12 12 12 12 12 12 12 12 12 11 11 10 10 10 10 10 10 10 10 11 11 11 11 10 10 10 10 10
13 13 13 13 13 13 13 13 13 13 12 12 12 12 12 12 12 12 12 12 11 11 11 11 11 10 10 10 10 10 10 10 10 10 10 10 10 10 10 10 10 10 10
13 13 13 13 13 13 13 13 13 13 12 12 12 12 12 12 12 12 11 11 11 11 11 11 11 10 10 10 10 10 10 10 10 10 10 10 10 10 10 10 10 10 10
12 12 12 12 12 12 12 12 12 12 12 12 12 12 12 12 12 12 11 11 11 11 11 11 11 10 10 10 10 10 10 10 9 10 10 10 10 10 10 10 10 9 9
12 12 12 12 12 12 12 12 12 12 12 12 12 12 12 11 11 11 11 11 11 11 11 10 10 10 10 10 10 10 10 10 9 9 9 9 9 9 9 9 9 9 9
12 11 11 11 11 11 11 11 11 11 12 11 11 11 11 12 11 11 11 11 11 10 10 10 10 10 10 10 10 9 9 9 9 9 9 9 9 9 9 9 9 9 9
11 11 11 11 11 11 11 11 11 11 11 11 11 11 11 11 11 11 11 11 11 10 10 10 10 10 10 10 9 9 9 9 9 9 9 9 9 8 8 8 9 9 8
11 11 11 11 10 10 11 11 11 11 11 11 11 11 11 11 11 11 11 11 11 11 10 10 10 10 10 10 9 9 9 9 9 9 8 8 8 8 8 8 8 8 8
10 10 10 10 10 10 10 11 11 10 10 10 10 10 10 11 10 10 10 10 10 10 10 10 10 10 9 9 9 9 9 9 8 8 8 8 8 8 8 8 8 8 8
10 10 10 10 10 10 10 10 10 10 10 10 10 10 10 10 10 10 10 10 10 10 10 9 9 9 9 9 9 9 8 8 8 8 8 8 8 8 8 8 8 8 8
9 9 9 9 9 9 9 10 9 9 9 9 9 9 10 10 10 10 9 9 9 9 9 9 9 9 9 9 9 8 8 8 8 7 8 7 7 7 7 7 7 7 7
Wind_Speed
4 4 5 5 5 5 5 5 6 7 7 8 8 8 8 8 8 8 9 12 12 12 11 11 11 11 11 11 11 10 10 9 9 9 9 9 9 8 7 7 7 7 7
4 4 4 4 5 5 5 4 6 5 5 6 7 8 8 8 8 8 8 10 12 12 12 11 11 11 11 11 10 10 10 9 9 9 9 9 8 8 8 7 7 7 7
4 4 3 4 4 4 5 5 5 5 5 5 6 7 7 7 7 8 8 7 8 11 11 11 10 10 10 10 10 10 9 9 9 9 8 8 7 7 7 7 6 6 6
3 3 3 3 3 4 3 3 3 3 4 4 5 5 5 5 6 7 7 7 7 7 9 10 10 9 9 9 9 9 9 9 9 10 9 9 8 7 7 7 6 6 6
3 3 2 2 3 3 3 2 3 3 3 4 4 4 4 4 4 5 6 6 6 6 6 8 8 9 9 8 8 9 9 9 9 9 9 8 8 7 6 6 6 5 6
2 3 2 2 2 2 2 2 3 2 2 2 3 3 4 4 3 4 5 5 5 6 6 6 5 7 8 8 8 8 8 8 7 8 8 8 7 7 5 5 5 4 5
2 2 1 1 1 1 1 2 2 2 2 1 1 2 3 3 3 3 3 3 4 5 5 6 5 5 5 7 8 8 8 7 7 7 7 7 6 6 6 6 6 5 5
2 1 1 1 1 1 2 2 2 1 1 0 0 0 1 2 2 2 2 2 3 3 4 5 5 5 5 5 9 9 8 7 6 6 6 7 6 6 5 5 5 5 5
2 2 1 1 1 1 2 2 2 1 1 0 1 1 1 1 1 1 2 1 2 3 3 4 4 5 5 5 5 8 8 7 6 6 6 6 6 6 5 5 5 5 5
2 2 2 1 1 1 2 2 2 2 1 1 0 1 2 1 1 0 1 1 2 2 2 2 3 4 5 4 5 7 7 7 6 5 6 6 5 5 6 5 4 4 4
2 2 2 2 1 1 2 2 2 2 2 1 1 0 0 0 2 1 1 1 1 1 2 2 2 2 3 4 4 7 7 6 6 5 5 6 5 5 5 4 4 4 4
1 2 2 2 2 2 2 2 2 2 2 1 1 1 1 1 1 1 2 2 1 1 1 1 1 2 2 3 4 7 6 6 6 6 5 5 5 5 4 4 3 4 4
2 2 2 2 2 2 2 3 3 3 3 3 3 2 2 2 2 2 2 2 2 1 0 0 0 1 1 2 3 4 4 4 4 5 5 5 5 4 4 3 3 3 4
2 2 2 2 2 2 2 2 3 3 3 3 3 3 3 3 2 2 2 2 2 1 1 0 0 0 0 0 2 0 2 3 3 3 4 4 5 4 4 3 3 3 3
2 3 2 2 2 2 2 2 3 3 3 3 3 3 3 3 3 3 3 2 2 2 2 0 1 1 1 0 0 1 0 2 1 2 3 4 4 4 3 3 3 4 4
3 3 3 3 2 2 2 2 2 3 3 2 2 3 3 3 3 3 3 3 3 3 2 2 1 1 1 2 1 2 1 2 2 1 2 3 3 3 2 2 3 3 4
3 3 3 3 3 3 2 2 2 3 3 3 3 4 4 4 3 3 3 4 3 3 3 3 2 2 3 3 2 3 3 2 1 1 1 1 2 2 2 2 2 2 3
3 3 3 3 3 3 3 3 3 3 3 4 4 4 4 3 5 4 4 4 4 4 4 4 3 3 3 3 3 2 2 2 1 1 1 1 2 2 2 2 2 2 2
3 3 3 4 4 4 4 4 4 4 4 4 4 4 4 4 5 4 5 5 4 4 4 4 3 2 2 2 2 3 3 2 2 2 3 3 2 2 2 1 1 2 2
3 3 4 4 4 4 4 4 4 5 4 4 4 4 4 4 5 5 5 5 4 4 4 4 3 3 3 2 3 2 2 2 2 2 2 2 3 3 3 2 2 1 2
3 3 3 3 3 3 3 3 4 4 4 4 4 4 4 3 4 4 3 4 4 4 4 4 4 3 3 2 3 3 3 2 2 2 2 2 3 3 3 4 3 2 2
3 3 3 3 3 2 1 2 4 5 4 4 5 4 4 4 4 4 4 4 4 5 5 4 4 4 4 4 3 3 3 3 2 1 2 2 2 2 2 2 1 2 3
3 3 3 3 3 2 1 2 4 5 5 5 4 4 3 3 4 5 5 5 5 5 6 6 6 5 5 4 4 5 4 4 3 2 2 3 2 3 2 1 2 3 3
3 3 3 3 4 3 1 3 4 6 5 5 5 5 5 4 4 4 5 5 5 4 5 6 5 5 4 4 4 5 4 3 2 2 3 3 3 3 2 2 2 3 4
3 4 3 4 4 4 1 2 4 4 5 5 5 5 5 5 2 2 5 5 4 3 2 2 2 1 1 1 2 3 4 4 3 3 3 3 3 3 3 3 2 4 4
3 3 3 4 4 4 1 2 4 4 4 4 4 4 3 4 2 3 5 5 5 4 3 3 3 3 3 4 5 5 5 5 4 3 3 3 3 3 3 3 2 2 3
Wind_Direction
87 88 84 81 75 72 70 69 74 72 67 64 65 64 62 61 61 62 71 60 56 60 65 69 67 64 67 69 71 76 78 77 74 69 65 64 66 67 71 68 65 65 63
90 88 84 79 73 70 67 70 78 77 71 68 67 65 62 61 62 63 67 71 66 63 61 63 66 65 63 66 66 69 71 69 69 69 67 64 63 62 64 65 64 66 63
102 98 87 82 78 79 76 69 77 77 77 76 72 66 63 60 62 61 62 63 71 72 64 59 62 64 62 61 61 64 65 64 63 60 60 59 60 60 59 60 64 65 61
108 101 95 89 89 85 81 74 74 80 79 76 73 67 67 65 61 58 62 64 60 64 70 61 58 61 62 59 58 59 62 62 57 54 52 51 53 56 56 57 59 64 62
114 113 102 104 98 88 82 81 74 74 80 80 82 73 67 67 65 60 59 58 59 58 61 72 68 60 55 56 56 56 58 58 54 50 49 50 48 49 54 56 53 57 58
128 118 129 126 116 115 103 98 96 86 80 86 87 79 71 71 66 63 54 53 52 53 52 57 66 67 60 55 52 55 56 55 54 51 48 46 44 45 50 52 43 46 53
154 141 150 133 133 139 136 117 105 108 97 95 105 100 100 89 71 69 60 50 54 49 48 48 49 50 67 68 53 55 55 51 50 49 47 44 41 42 45 44 42 48 52
153 145 168 158 161 159 160 138 129 125 93 102 342 191 145 140 104 74 71 58 45 49 44 42 50 46 40 51 58 55 51 47 46 43 45 43 40 39 42 42 44 45 50
157 159 175 173 176 189 174 170 174 177 179 112 342 316 306 15 53 123 78 68 52 38 35 32 39 42 43 49 52 54 45 37 39 40 40 38 37 38 40 48 48 48 53
154 160 168 188 176 172 188 187 197 204 201 201 147 322 334 358 297 265 132 77 55 36 27 28 28 40 41 48 58 49 38 36 38 37 33 29 27 32 37 41 46 49 52
152 157 177 183 184 180 197 185 195 223 207 217 223 234 296 307 287 290 301 341 31 33 25 20 26 34 37 40 48 51 40 38 36 33 27 23 20 20 20 24 31 35 39
165 169 187 195 198 199 207 198 195 210 226 221 237 237 250 255 271 272 282 302 334 12 34 31 14 27 31 36 51 53 44 41 35 30 26 20 13 10 9 12 18 27 29
185 190 189 210 220 221 225 215 209 224 225 223 234 246 246 254 257 260 269 284 297 307 36 58 27 23 33 30 56 55 62 48 37 25 18 17 16 11 9 10 11 17 17
198 199 197 207 222 236 231 224 229 228 237 233 236 240 244 248 245 245 251 268 280 273 223 178 176 339 16 6 40 343 77 69 37 21 18 16 15 16 16 17 10 5 4
207 205 202 212 218 233 239 227 233 230 236 238 242 244 243 242 240 247 238 241 259 269 276 219 224 234 247 250 270 269 338 90 60 18 17 15 8 6 12 12 5 7 1
215 215 213 212 210 217 232 235 239 245 237 234 247 250 246 241 235 236 237 240 251 263 264 264 252 228 234 242 243 258 280 148 156 19 1 2 1 0 358 360 1 360 356
214 221 230 226 221 220 228 230 244 244 243 237 234 239 239 244 235 230 231 231 239 249 251 263 253 232 226 243 237 239 235 225 182 163 278 340 341 336 340 337 348 349 347
220 224 229 236 233 229 228 230 238 244 246 251 252 248 245 238 241 238 231 230 233 241 245 256 252 240 242 246 240 239 234 232 238 160 201 288 314 300 291 303 317 320 330
225 225 227 236 239 239 235 234 239 246 248 254 256 256 255 246 242 237 233 235 233 235 238 242 250 243 240 239 236 237 232 231 240 209 206 233 263 281 266 255 283 298 309
227 232 235 235 240 244 242 240 245 249 253 254 252 255 260 257 253 248 238 237 234 232 231 234 237 232 228 233 231 230 233 226 239 241 247 244 236 235 237 233 240 278 322
233 235 241 241 245 249 258 262 257 261 264 261 256 252 253 263 288 272 256 243 236 238 232 231 235 235 223 217 231 239 239 240 251 260 259 248 241 247 239 233 235 255 283
238 235 239 248 254 254 298 285 275 266 270 268 264 258 245 232 238 245 265 266 254 242 239 236 239 237 234 228 228 236 234 237 248 239 258 263 255 262 257 254 210 224 254
238 241 242 248 258 269 287 261 260 267 266 269 266 261 254 252 240 238 226 225 238 255 251 249 248 246 244 233 228 231 234 243 254 239 249 259 254 264 259 250 198 219 242
250 246 247 251 259 264 264 261 255 254 262 263 263 260 255 255 246 249 242 232 231 226 229 237 248 251 246 240 237 241 244 239 247 230 227 256 254 260 266 258 196 226 241
269 258 249 251 258 265 263 267 269 260 259 262 262 260 259 257 240 247 246 241 237 232 205 227 298 306 343 235 230 225 220 221 241 231 227 252 262 262 263 255 222 203 219
275 270 263 259 260 269 266 255 267 264 263 264 266 263 253 263 249 223 240 239 242 242 221 206 206 200 211 201 209 224 228 232 241 239 216 234 252 256 250 242 246 236 234
Height
1539 1539 1538 1538 1538 1537 1537 1537 1537 1536 1536 1535 1535 1534 1533 1532 1532 1531 1530 1529 1528 1527 1526 1525 1524 1523 1522 1520 1519 1520 1520 1520 1520 1520 1520 1520 1520 1521 1521 1521 1521 1521 1522
1540 1540 1540 1539 1539 1539 1538 1538 1538 1537 1537 1536 1536 1535 1534 1534 1533 1532 1531 1530 1529 1528 1527 1526 1525 1524 1523 1522 1522 1522 1521 1521 1521 1521 1521 1521 1520 1521 1521 1521 1521 1521 1521
1541 1541 1541 1541 1540 1540 1540 1539 1539 1539 1538 1537 1537 1536 1536 1535 1534 1534 1533 1532 1531 1530 1528 1527 1526 1525 1525 1524 1523 1523 1522 1522 1521 1522 1522 1521 1521 1521 1521 1521 1521 1521 1521
1542 1542 1541 1541 1541 1541 1540 1540 1540 1540 1539 1539 1538 1538 1537 1536 1536 1535 1534 1533 1532 1531 1530 1528 1528 1527 1526 1525 1524 1524 1523 1522 1522 1522 1522 1522 1521 1521 1521 1521 1521 1521 1521
1542 1542 1542 1542 1542 1541 1541 1541 1541 1540 1540 1539 1539 1539 1538 1537 1537 1536 1536 1535 1533 1532 1531 1530 1529 1528 1527 1526 1525 1524 1524 1523 1522 1523 1522 1522 1522 1521 1521 1521 1521 1521 1521
1543 1543 1542 1542 1542 1542 1541 1541 1541 1541 1540 1540 1540 1540 1539 1538 1538 1537 1536 1536 1535 1534 1532 1531 1530 1529 1528 1527 1526 1524 1524 1524 1524 1523 1523 1523 1522 1522 1521 1521 1520 1520 1520
1542 1543 1542 1542 1542 1542 1542 1542 1541 1541 1541 1541 1541 1541 1540 1539 1539 1538 1537 1537 1536 1534 1533 1532 1531 1530 1529 1528 1526 1525 1525 1524 1524 1524 1523 1523 1523 1522 1521 1521 1520 1520 1520
1542 1542 1542 1542 1542 1542 1542 1542 1541 1541 1541 1541 1541 1541 1541 1542 1540 1539 1538 1537 1537 1536 1535 1533 1532 1531 1530 1529 1527 1526 1525 1525 1524 1524 1524 1523 1523 1522 1521 1521 1520 1520 1520
1541 1541 1541 1541 1541 1542 1542 1541 1541 1541 1541 1540 1540 1541 1541 1541 1541 1540 1539 1538 1537 1536 1535 1534 1533 1532 1531 1530 1528 1527 1526 1525 1525 1524 1524 1523 1523 1522 1522 1521 1520 1520 1519
1540 1540 1540 1540 1541 1541 1541 1541 1541 1541 1540 1540 1540 1540 1541 1540 1541 1540 1540 1539 1537 1536 1535 1534 1533 1532 1531 1530 1528 1527 1526 1525 1525 1524 1524 1523 1523 1522 1521 1521 1520 1520 1519
1538 1538 1539 1539 1539 1539 1540 1540 1540 1540 1540 1540 1540 1540 1540 1539 1540 1540 1539 1539 1538 1537 1535 1534 1533 1532 1531 1530 1528 1527 1526 1525 1525 1524 1523 1523 1522 1522 1521 1520 1520 1519 1519
1537 1537 1537 1537 1538 1538 1538 1539 1538 1538 1539 1539 1539 1539 1539 1539 1539 1539 1539 1538 1537 1537 1535 1534 1533 1532 1531 1530 1528 1527 1526 1525 1525 1524 1523 1523 1522 1521 1520 1520 1519 1519 1518
1535 1536 1536 1536 1536 1536 1537 1537 1537 1537 1537 1537 1537 1538 1538 1538 1538 1538 1538 1537 1536 1536 1535 1534 1532 1531 1530 1529 1528 1527 1526 1525 1524 1524 1523 1522 1521 1520 1519 1518 1518 1518 1518
1533 1534 1534 1534 1534 1535 1535 1535 1535 1536 1536 1536 1536 1536 1536 1536 1536 1536 1536 1536 1535 1535 1534 1534 1532 1531 1530 1529 1528 1527 1526 1525 1524 1523 1522 1521 1520 1519 1518 1517 1517 1517 1517
1531 1532 1532 1532 1532 1533 1533 1533 1533 1534 1534 1534 1534 1534 1534 1534 1534 1534 1534 1534 1535 1534 1533 1533 1532 1530 1529 1528 1527 1526 1525 1524 1523 1522 1521 1520 1519 1518 1517 1517 1516 1516 1516
1529 1530 1530 1530 1530 1530 1531 1531 1531 1531 1532 1532 1532 1532 1532 1532 1532 1532 1532 1532 1532 1532 1531 1531 1530 1529 1528 1527 1526 1525 1524 1523 1522 1521 1520 1519 1518 1517 1516 1516 1515 1515 1514
1527 1527 1527 1528 1528 1528 1528 1528 1529 1529 1529 1530 1530 1530 1529 1529 1529 1529 1529 1529 1529 1530 1529 1529 1528 1527 1526 1525 1524 1524 1523 1522 1522 1520 1519 1518 1517 1516 1515 1514 1514 1513 1513
1525 1525 1525 1525 1526 1526 1526 1526 1526 1526 1527 1527 1527 1527 1527 1526 1526 1527 1526 1527 1527 1526 1527 1526 1525 1525 1524 1523 1523 1522 1521 1521 1520 1519 1518 1517 1516 1515 1514 1513 1512 1512 1511
1522 1522 1523 1523 1523 1523 1523 1523 1524 1524 1524 1524 1524 1524 1524 1523 1523 1523 1523 1524 1523 1523 1523 1523 1522 1521 1521 1521 1520 1519 1519 1519 1518 1517 1516 1515 1514 1513 1512 1512 1511 1510 1510
1520 1520 1520 1520 1520 1520 1520 1520 1521 1521 1521 1521 1520 1520 1520 1520 1520 1520 1520 1520 1520 1520 1520 1519 1519 1519 1518 1518 1518 1517 1517 1517 1516 1515 1514 1513 1512 1512 1511 1510 1509 1509 1508
1517 1517 1517 1517 1517 1517 1517 1517 1517 1517 1517 1517 1517 1517 1516 1516 1516 1516 1516 1516 1516 1516 1516 1516 1516 1516 1515 1515 1515 1515 1515 1515 1514 1513 1512 1512 1511 1510 1509 1508 1507 1507 1506
1513 1514 1514 1514 1514 1514 1514 1514 1514 1514 1514 1514 1513 1513 1513 1512 1512 1512 1512 1512 1513 1513 1513 1513 1513 1513 1512 1513 1512 1513 1513 1512 1512 1511 1510 1510 1509 1508 1507 1507 1506 1505 1504
1510 1510 1510 1511 1511 1511 1510 1510 1510 1511 1510 1510 1510 1510 1509 1509 1508 1509 1509 1508 1508 1508 1509 1509 1509 1509 1509 1509 1509 1510 1510 1510 1510 1509 1508 1507 1507 1506 1505 1504 1503 1503 1502
1507 1507 1507 1507 1507 1507 1507 1507 1507 1507 1507 1507 1507 1506 1506 1505 1505 1505 1505 1505 1505 1505 1505 1505 1506 1506 1506 1506 1506 1507 1507 1507 1506 1506 1506 1505 1504 1504 1503 1502 1501 1500 1500
1503 1503 1504 1504 1504 1504 1503 1503 1503 1503 1503 1503 1502 1502 1502 1502 1501 1501 1501 1501 1501 1501 1501 1501 1501 1501 1501 1502 1502 1503 1503 1504 1503 1503 1503 1503 1502 1501 1500 1499 1499 1498 1497
1500 1500 1500 1500 1500 1500 1500 1500 1500 1499 1499 1498 1498 1498 1497 1497 1497 1497 1497 1497 1497 1497 1497 1497 1497 1497 1498 1498 1498 1499 1500 1500 1500 1500 1499 1499 1499 1499 1498 1497 1496 1495 1495